This demonstration page uses our WeatherBlox Daily Observations layout. Learn more.

39.29038, -76.61219

Hourly Observations for April 21, 2018

Temp ( °F °C ) Dew Point ( °F °C ) Humidity (%) Winds ( mph kmh ) Pressure ( in mb ) Visibility ( mi km ) Precip ( " mm )
12:54 am 00:54 undefined 48 8.9 26 -3.3 42 42 undefined N/A 30.42 1030 N/A 0 0
1:54 am 01:54 undefined 47 8.3 25 -3.9 42 42 undefined N/A 30.43 1031 N/A 0 0
2:54 am 02:54 undefined 45 7.2 25 -3.9 46 46 undefined N/A 30.44 1031 N/A 0 0
3:54 am 03:54 undefined 45 7.2 25 -3.9 46 46 undefined N/A 30.45 1031 N/A 0 0
4:54 am 04:54 undefined 45 7.2 24 -4.4 44 44 undefined N/A 30.45 1031 N/A 0 0
5:54 am 05:54 undefined 45 7.2 24 -4.4 44 44 undefined N/A 30.45 1031 N/A 0 0
6:54 am 06:54 undefined 45 7.2 25 -3.9 46 46 undefined N/A 30.46 1032 N/A 0 0
7:54 am 07:54 undefined 45 7.2 27 -2.8 49 49 undefined N/A 30.48 1032 N/A 0 0
8:54 am 08:54 undefined 48 8.9 26 -3.3 42 42 undefined N/A 30.5 1033 N/A 0 0
9:54 am 09:54 undefined 50 10 26 -3.3 39 39 undefined N/A 30.5 1033 N/A 0 0
10:54 am 10:54 undefined 54 12.2 26 -3.3 34 34 undefined N/A 30.48 1032 N/A 0 0
11:54 am 11:54 undefined 56 13.3 27 -2.8 33 33 undefined N/A 30.46 1032 N/A 0 0
12:54 pm 12:54 undefined 57 13.9 24 -4.4 28 28 undefined N/A 30.42 1030 N/A 0 0
1:54 pm 13:54 undefined 58 14.4 25 -3.9 28 28 undefined N/A 30.39 1029 N/A 0 0
2:54 pm 14:54 undefined 60 15.6 21 -6.1 22 22 undefined N/A 30.37 1028 N/A 0 0
3:54 pm 15:54 undefined 62 16.7 23 -5 22 22 undefined N/A 30.35 1028 N/A 0 0
4:54 pm 16:54 undefined 63 17.2 25 -3.9 24 24 undefined N/A 30.34 1027 N/A 0 0
5:54 pm 17:54 undefined 60 15.6 31 -0.6 33 33 undefined N/A 30.34 1027 N/A 0 0
6:54 pm 18:54 undefined 59 15 35 1.7 41 41 undefined N/A 30.34 1028 N/A 0 0
7:54 pm 19:54 undefined 58 14.4 34 1.1 41 41 undefined N/A 30.35 1028 N/A 0 0
8:54 pm 20:54 undefined 56 13.3 31 -0.6 39 39 undefined N/A 30.37 1029 N/A 0 0
9:54 pm 21:54 undefined 55 12.8 31 -0.6 40 40 undefined N/A 30.38 1029 N/A 0 0
10:54 pm 22:54 undefined 53 11.7 32 0 45 45 undefined N/A 30.38 1029 N/A 0 0
11:54 pm 23:54 undefined 53 11.7 32 0 45 45 undefined N/A 30.38 1029 N/A 0 0

Powered by AerisWeather